FENGYUN 1C DEB

Satellite information

Favourite Embed

Satellite Type and Status

DEBRISIN ORBIT

Key statistics

Satellite FENGYUN 1C DEB at a glance.

Uptime

9494

Days in orbit

Revolutions

≈ 14.3

Per day

Orbit

SSO

Sun Synchronous Orbit

Inclination

99.0

Latest

Satellite identification and parameters

Extended collection of information and parameters for FENGYUN 1C DEB.

Object identification

Identified? True

Debris? True

Object name: FENGYUN 1C DEB

International designator: 1999-025DWP

Object number (NORAD): 36262

Object ID (CCSDS): 36262

Country: PEOPLES REPUBLIC OF CHINA (PRC)

Current information (Y/N): Y

RCS size: SMALL

Orbital parameters

Period: 100.878 minutes

Inclination: 98.9932 deg

SMA: 7178.353 km

Apoapsis: 843.439 km

Periapsis: 756.997 km

RAAN: 353.8452 deg

Eccentricy: 0.006021

Argument of periapsis: 212.0011 deg

Mean anomaly: 147.7507 deg

Mean motion: 14.27465235 rev/day

Mean motion (dot): 0.00000878 rev/day2

B* drag term: 0.00036962 1/REarth

Two-line elements (TLE)

Creation date: May 2, 2025, 2:33 a.m.

Reference frame: TEME

Reference center: EARTH

Epoch: April 29, 2025, 11:12 a.m. UTC

TLE line 0: 0 FENGYUN 1C DEB

TLE line 1: 1 36262U 99025DWP 25119.46684853 .00000878 00000-0 36962-3 0 9998

TLE line 2: 2 36262 98.9932 353.8452 0060210 212.0011 147.7507 14.27465235862542

Live tracking on map

Real-time ground track for satellite FENGYUN 1C DEB.

In-orbit conjunctions

A list of the most updated potential collisions computed for object FENGYUN 1C DEB.

Target Orbit TCA Probability of collision Miss distance Type
COSMOS 158 LEO 2025-03-02 15:37:14 0.0004117903 173.0 (m) PAYLOAD
FENGYUN 1C DEB SSO 2024-09-25 21:29:54 0.00061941 165.0 (m) DEBRIS
COSMOS 1603 LEO 2024-07-21 00:13:18 0.000243464 70.0 (m) PAYLOAD

Associated space launch

Chinese polar orbiting meteorological satellite

FENGYUN 1C DEB was lifted into orbit during the mission ‘Long March 4B | Feng Yun 1C’, on board a Long March 4B space rocket.

The launch took place on May 10, 1999, 1:33 a.m. from Launch Complex 7.

For more information about the launch, click the button.

Launch to space Long March 4B | Feng Yun 1C
Long March 4B | Feng Yun 1C

Agency: N/A

Status: Launch Successful

Launch date: May 10, 1999, 1:33 a.m. UTC

Rocket: Long March 4B

Launch pad: Launch Complex 7

Location: Taiyuan Satellite Launch Center, People's Republic of China

...

Latest news about this satellite

There are no fresh news available about this satellite. Check back as we update our databases every day.


Newsletter sign-up

Weekly statistics, charts and insights to help you stay on top of the space industry.